Location: Finnegan
(51.1333°N, 112.0833°W)
Time: 04:17:53
(UTC+00:00)

Tiangong - Pass Details

Date: 06 December 2022
Orbit: 382 x 386 km, 41.5° (Epoch: 05 February)

Event Time Altitude Azimuth Distance (km) Brightness Sun altitude
Rises 00:45:13 0° 235° (SW) 2,248 3.5 -12.2°
Reaches altitude 10° 00:47:57 10° 209° (SSW) 1,397 1.4 -12.6°
Maximum altitude 00:49:43 14° 175° (S) 1,175 0.5 -12.9°
Drops below altitude 10° 00:51:30 10° 140° (SE) 1,399 0.5 -13.2°
Enters shadow 00:52:08 - 132° (SE) 1,560 0.7 -13.3°
